Regional Weather Roundup
Issued by NWS

Home | Current Version | Previous Version | Graphics & Text | Print | Product List | Glossary On
Versions: 1 2 3 4 5 6 7 8 9 10 11 12 13 14 15 16 17 18 19 20 21 22 23 24 25 26 27 28
000
ASUS45 KBOU 230207
RWRCO

WEATHER ROUNDUP FOR COLORADO
NATIONAL WEATHER SERVICE DENVER/BOULDER CO
800 PM MDT THU JUN 22 2017

NOTE: "FAIR" INDICATES FEW OR NO CLOUDS BELOW 12000 FEET WITH NO
SIGNIFICANT WEATHER AND/OR OBSTRUCTIONS TO VISIBILITY.

COZ001>005-013-030-031-230300-
...NORTHWEST COLORADO...

CITY           SKY/WX    TMP DP  RH WIND       PRES   REMARKS
CRAIG          FAIR      82  23  11 NW16G25   30.00R
HAYDEN         FAIR      77  32  19 N9        30.03R
MEEKER         FAIR      69  52  54 MISG      30.03S
RABBIT EARS PA FAIR      54  36  50 W5        30.35S
STEAMBOAT SPGS FAIR      72  41  33 E5        30.06R
WALDEN         FAIR      73  18  12 NW22      30.14S
$$

COZ006>008-011-230300-
...WEST CENTRAL VALLEYS...

CITY           SKY/WX    TMP DP  RH WIND       PRES   REMARKS
GRAND JUNCTION FAIR      90  36  14 CALM      29.85S
MONTROSE       FAIR      86  34  15 NW7       29.96S
EAGLE          FAIR      75  39  27 E7        30.08S
RIFLE          FAIR      85  35  16 CALM      29.93S
DELTA          FAIR      95  28   9 NW14      29.89S
NUCLA          FAIR      90  28  11 N9G20     29.99R
$$

COZ017>023-064>068-230300-
...SOUTHWEST COLORADO...

CITY           SKY/WX    TMP DP  RH WIND       PRES   REMARKS
DURANGO        FAIR      85  12   6 W14       30.00S
CORTEZ         FAIR      85  20   9 SW7       29.95R
PAGOSA SPRINGS FAIR      82   4   5 SW8       30.11R
TELLURIDE      FAIR      75  18  11 W6        30.27S
WOLF CREEK PAS FAIR      59  14  17 SW6       30.54R
$$

COZ009-010-012-014-032>034-037-058>063-230300-
...CENTRAL COLORADO...

CITY           SKY/WX    TMP DP  RH WIND       PRES   REMARKS
ASPEN          FAIR      68  38  33 SW7       30.14F
BUENA VISTA    FAIR      74  29  19 NW15G23   30.15R
COPPER MTN     CLOUDY    54  30  40 NW20G28   30.51R
BERTHOUD PASS  LGT RAIN  37  27  65 NW43G60   30.53R
COTTONWOOD PAS FAIR      70  18  13 SW5G17    30.31R
GUNNISON       FAIR      76  35  22 N12G20    30.12R
KREMMLING      NOT AVBL
LEADVILLE      FAIR      62  28  27 NW6       30.32R
MONARCH PASS   CLOUDY    61  21  21 NW7G37    30.60R
SALIDA         FAIR      81  33  17 NE10      30.19R
SUNLIGHT       FAIR      59  32  36 SW9G16    30.41R
WILKERSON PASS MOCLDY    54  34  47 S6        30.47S
$$

COZ069>075-230300-
...SAN LUIS VALLEY/SANGRE DE CRISTO MOUNTAINS...

CITY           SKY/WX    TMP DP  RH WIND       PRES   REMARKS
ALAMOSA        FAIR      75  43  31 CALM      30.07R
DEL NORTE      FAIR      80  22  11 W16G23    30.12R
LA VETA PASS   CLOUDY    59  37  44 N14       30.47R
SAGUACHE       FAIR      79  21  11 NW20G25   30.10R
$$

COZ035-036-038>040-230300-
...NORTHERN COLORADO FRONT RANGE...

CITY           SKY/WX    TMP DP  RH WIND       PRES   REMARKS
DENVER INTL AP MOCLDY    72  53  51 E7        29.99R
DMNS CITY PARK   N/A     73  45  37 NW7G14    30.01R
AURORA         MOCLDY    70  54  56 E8        30.01R
FRONT RANGE AP FAIR      72  54  53 SE6       30.01R
ERIE MUNI ARPT LGT RAIN  71  46  41 SW3       29.98R
BOULDER MUN AP MOCLDY    70  52  52 W12       30.01R
CENTENNIAL     CLOUDY    74  49  41 S3        30.01R
BROOMFIELD     FAIR      72  43  35 N12       30.04R
FORT COLLINS   FAIR      74  50  42 S8        29.99R
LONGMONT       FAIR      72  56  55 W7        30.00R
$$

COZ041-046-047-076>085-087-088-230300-
...PIKES PEAK/PALMER DIVIDE AND SOUTHERN FOOTHILLS...

CITY           SKY/WX    TMP DP  RH WIND       PRES   REMARKS
COLO. SPRINGS  MOCLDY    77  47  34 N16       30.03S
A. F. ACADEMY  FAIR      70  48  45 N6        30.06S
SCHRIEVER AFB  NOT AVBL
CHEYENNE MTN   NOT AVBL
ELLICOTT       FAIR     N/A N/A N/A E12       30.02R
FALCON           N/A     72  45  37 N8        30.10R
FORT CARSON    MOCLDY    76  50  39 N17       30.01R
LIMON          FAIR      74  51  44 E7        29.95F
MONUMENT HILL  FAIR      64  46  52 CALM      30.13R
CANON CITY     CLEAR     82  50  32 SE15G23   29.96R
WALSENBURG     FAIR      79  45  29 NE12      30.06R
TRINIDAD       FAIR      76  46  34 NE17      29.99R
$$

COZ042>045-048>051-090-091-230300-
...NORTHEAST COLORADO...

CITY           SKY/WX    TMP DP  RH WIND       PRES   REMARKS
GREELEY ARPT   FAIR      75  53  46 E12       29.96R
AKRON          FAIR      73  53  49 NE15      29.94S
BURLINGTON     FAIR      77  58  51 NE12      29.86F
WRAY           FAIR      75  54  46 NE20      29.89F
YUMA           NOT AVBL
STERLING       FAIR      75  55  50 E10       29.92R
HOLYOKE        NOT AVBL
FORT MORGAN    FAIR      73  51  46 NE14      29.95R
$$

COZ086-089-092>099-230300-
...SOUTHEAST COLORADO...

CITY           SKY/WX    TMP DP  RH WIND       PRES   REMARKS
PUEBLO         FAIR      82  48  30 E16G23    29.91R
LA JUNTA       FAIR      79  50  36 NE18      29.89R
LAMAR          FAIR      81  46  29 E9        29.81R
SPRINGFIELD      N/A     74  53  48 E18G28    29.88R
$$




USA.gov is the U.S. government's official web portal to all federal, state and local government web resources and services.